User: anonymous   Login
Location: *
(37.5724°S, 58.0067°E)
Time: 17:25:45
(UTC+00:00)
Language:

IRAS Rocket - Orbit

View from above orbital plane
View from above orbital plane
View from above satellite
View from above satellite

Ground track
Ground track

The orbit data is extracted from the following two-line orbital elements,

1 13778U 83004B   20333.82897704  .00000054  00000-0  62258-4 0  9993
2 13778 100.0703 117.5873 0021116  11.6654 348.4997 14.09034224944555
Epoch (UTC): 28 November 2020 19:53:43
Eccentricity: 0.0021116
inclination: 100.0703°
perigee height: 847 km
apogee height: 878 km
right ascension of ascending node: 117.5873°
argument of perigee: 11.6654°
revolutions per day: 14.09034224
mean anomaly at epoch: 348.4997°
orbit number at epoch: 94455

The dashed part of the orbit path shows where the satellite is in the earth's shadow,  

DLR